CMP223 MPTO-SVMI

Flight info

Callsign CMP223
Flight time 1h 46m
Altitude 37000
Route REMAL1A REMAL DCT ESEDA UP650 PBL ALDAK1
Aircraft B38M/M-SDE1FGHILORVWXY/HB1

Departure

Time 2026-04-28 12:34
Airport Tocumen International Airport (MPTO)

Arrival

Time 2026-04-28 14:21
Airport Maiquetía Simón Bolívar International Airport (SVMI)
Time Latitude Longitude Altitude Speed Heading
2026-04-28 12:23 9.06127 -79.39211 32 ft 0 kts 117°
2026-04-28 12:25 9.06130 -79.39217 32 ft 4 kts 124°
2026-04-28 12:25 9.06146 -79.39227 32 ft 4 kts 195°
2026-04-28 12:25 9.06153 -79.39224 32 ft 0 kts 205°
2026-04-28 12:28 9.06152 -79.39225 32 ft 1 kts 205°
2026-04-28 12:28 9.06134 -79.39233 32 ft 6 kts 201°
2026-04-28 12:28 9.06078 -79.39255 32 ft 10 kts 203°
2026-04-28 12:29 9.05949 -79.39229 32 ft 13 kts 120°
2026-04-28 12:29 9.05906 -79.39150 32 ft 13 kts 118°
2026-04-28 12:29 9.05839 -79.39128 32 ft 12 kts 206°
2026-04-28 12:30 9.05757 -79.39173 32 ft 14 kts 207°
2026-04-28 12:30 9.05687 -79.39125 32 ft 14 kts 121°
2026-04-28 12:30 9.05635 -79.39036 32 ft 12 kts 121°
2026-04-28 12:30 9.05569 -79.38989 32 ft 13 kts 192°
2026-04-28 12:31 9.05480 -79.39033 32 ft 15 kts 208°
2026-04-28 12:31 9.05382 -79.39089 32 ft 17 kts 211°
2026-04-28 12:31 9.05273 -79.39153 32 ft 19 kts 209°
2026-04-28 12:31 9.05152 -79.39221 33 ft 21 kts 210°
2026-04-28 12:32 9.05029 -79.39292 33 ft 19 kts 210°
2026-04-28 12:32 9.04936 -79.39346 33 ft 14 kts 210°
2026-04-28 12:32 9.04852 -79.39375 33 ft 13 kts 165°
2026-04-28 12:32 9.04799 -79.39310 33 ft 9 kts 123°
2026-04-28 12:33 9.04774 -79.39260 34 ft 5 kts 80°
2026-04-28 12:33 9.04785 -79.39250 34 ft 0 kts 28°
2026-04-28 12:33 9.04800 -79.39242 34 ft 17 kts 28°
2026-04-28 12:33 9.05165 -79.39034 33 ft 101 kts 29°
2026-04-28 12:34 9.05990 -79.38567 37 ft 168 kts 29°
2026-04-28 12:34 9.07123 -79.37923 439 ft 200 kts 29°
2026-04-28 12:34 9.08283 -79.37187 1561 ft 189 kts 43°
2026-04-28 12:34 9.08949 -79.35976 2296 ft 213 kts 74°
2026-04-28 12:35 9.08891 -79.34397 2848 ft 240 kts 102°
2026-04-28 12:35 9.08537 -79.32727 3846 ft 239 kts 96°
2026-04-28 12:35 9.08264 -79.31048 4885 ft 248 kts 97°
2026-04-28 12:35 9.07968 -79.29277 5730 ft 260 kts 97°
2026-04-28 12:36 9.07657 -79.27455 6485 ft 266 kts 98°
2026-04-28 12:36 9.07336 -79.25612 6662 ft 265 kts 98°
2026-04-28 12:36 9.07013 -79.23772 6795 ft 265 kts 98°
2026-04-28 12:36 9.06689 -79.21933 6869 ft 266 kts 98°
2026-04-28 12:37 9.06365 -79.20091 6887 ft 266 kts 98°
2026-04-28 12:37 9.06039 -79.18253 6888 ft 265 kts 98°
2026-04-28 12:37 9.05795 -79.16395 7113 ft 269 kts 89°
2026-04-28 12:37 9.05792 -79.14478 7936 ft 278 kts 89°
2026-04-28 12:38 9.05770 -79.12511 8886 ft 281 kts 90°
2026-04-28 12:38 9.05738 -79.10517 9825 ft 286 kts 90°
2026-04-28 12:38 9.05697 -79.08515 10656 ft 291 kts 91°
2026-04-28 12:38 9.05650 -79.06448 11469 ft 297 kts 91°
2026-04-28 12:39 9.05601 -79.04345 12268 ft 302 kts 91°
2026-04-28 12:39 9.05548 -79.02175 13086 ft 307 kts 91°
2026-04-28 12:39 9.05494 -78.99998 13844 ft 312 kts 92°
2026-04-28 12:39 9.05441 -78.97817 14521 ft 316 kts 92°
2026-04-28 12:40 9.05385 -78.95579 15239 ft 320 kts 92°
2026-04-28 12:40 9.05329 -78.93315 15917 ft 324 kts 92°
2026-04-28 12:40 9.05272 -78.91020 16596 ft 328 kts 92°
2026-04-28 12:40 9.05214 -78.88703 17255 ft 332 kts 92°
2026-04-28 12:41 9.05155 -78.86355 17905 ft 336 kts 92°
2026-04-28 12:41 9.05096 -78.83980 18500 ft 339 kts 92°
2026-04-28 12:41 9.05052 -78.81566 18876 ft 350 kts 91°
2026-04-28 12:41 9.05020 -78.79048 19111 ft 364 kts 91°
2026-04-28 12:42 9.04984 -78.76458 19528 ft 370 kts 91°
2026-04-28 12:42 9.04946 -78.73851 20082 ft 372 kts 91°
2026-04-28 12:42 9.04908 -78.71222 20580 ft 375 kts 91°
2026-04-28 12:42 9.04870 -78.68570 21088 ft 378 kts 91°
2026-04-28 12:43 9.04832 -78.65900 21579 ft 381 kts 91°
2026-04-28 12:43 9.04791 -78.63211 22086 ft 384 kts 91°
2026-04-28 12:43 9.04752 -78.60501 22584 ft 387 kts 92°
2026-04-28 12:43 9.04711 -78.57759 23063 ft 390 kts 92°
2026-04-28 12:44 9.04670 -78.55041 23530 ft 393 kts 92°
2026-04-28 12:44 9.04629 -78.52264 23917 ft 396 kts 92°
2026-04-28 12:44 9.04587 -78.49463 24283 ft 399 kts 92°
2026-04-28 12:44 9.04544 -78.46631 24667 ft 402 kts 92°
2026-04-28 12:45 9.04501 -78.43788 25041 ft 406 kts 92°
2026-04-28 12:45 9.04457 -78.40919 25406 ft 409 kts 92°
2026-04-28 12:45 9.04414 -78.38065 25763 ft 412 kts 92°
2026-04-28 12:45 9.04369 -78.35151 26127 ft 415 kts 92°
2026-04-28 12:46 9.04323 -78.32214 26482 ft 419 kts 92°
2026-04-28 12:46 9.04277 -78.29259 26836 ft 422 kts 92°
2026-04-28 12:46 9.04231 -78.26283 27186 ft 425 kts 92°
2026-04-28 12:46 9.04183 -78.23282 27532 ft 428 kts 92°
2026-04-28 12:47 9.04136 -78.20263 27871 ft 431 kts 92°
2026-04-28 12:47 9.04087 -78.17223 28212 ft 434 kts 92°
2026-04-28 12:47 9.04039 -78.14163 28547 ft 437 kts 92°
2026-04-28 12:47 9.03989 -78.11074 28873 ft 439 kts 92°
2026-04-28 12:48 9.03939 -78.07974 29194 ft 442 kts 92°
2026-04-28 12:48 9.03888 -78.04852 29514 ft 445 kts 92°
2026-04-28 12:48 9.03837 -78.01711 29848 ft 448 kts 92°
2026-04-28 12:48 9.03785 -77.98553 30134 ft 451 kts 92°
2026-04-28 12:49 9.03733 -77.95419 30405 ft 453 kts 92°
2026-04-28 12:49 9.03680 -77.92187 30685 ft 455 kts 92°
2026-04-28 12:49 9.03627 -77.89025 30967 ft 456 kts 92°
2026-04-28 12:49 9.03573 -77.85810 31228 ft 459 kts 92°
2026-04-28 12:50 9.03519 -77.82569 31499 ft 461 kts 92°
2026-04-28 12:50 9.03464 -77.79315 31773 ft 462 kts 92°
2026-04-28 12:50 9.03408 -77.76053 32031 ft 464 kts 92°
2026-04-28 12:50 9.03352 -77.72778 32289 ft 467 kts 92°
2026-04-28 12:51 9.03315 -77.70590 32455 ft 468 kts 92°
2026-04-28 12:51 9.03239 -77.66215 32786 ft 471 kts 92°
2026-04-28 12:51 9.03182 -77.62898 33032 ft 473 kts 92°
2026-04-28 12:51 9.03142 -77.60642 33196 ft 474 kts 92°
2026-04-28 12:52 9.03084 -77.57301 33436 ft 476 kts 92°
2026-04-28 12:52 9.03026 -77.53981 33666 ft 478 kts 92°
2026-04-28 12:52 9.02966 -77.50609 33899 ft 480 kts 92°
2026-04-28 12:52 9.02906 -77.47220 34097 ft 482 kts 93°
2026-04-28 12:53 9.02845 -77.43818 34330 ft 483 kts 92°
2026-04-28 12:53 9.03031 -77.40430 34595 ft 484 kts 81°
2026-04-28 12:53 9.03684 -77.37093 34871 ft 484 kts 81°
2026-04-28 12:53 9.04295 -77.33731 35105 ft 485 kts 81°
2026-04-28 12:54 9.04907 -77.30419 35369 ft 484 kts 81°
2026-04-28 12:54 9.05530 -77.27078 35638 ft 484 kts 81°
2026-04-28 12:54 9.06155 -77.23730 35904 ft 483 kts 81°
2026-04-28 12:54 9.06778 -77.20392 36173 ft 483 kts 81°
2026-04-28 12:55 9.07400 -77.17057 36433 ft 482 kts 81°
2026-04-28 12:55 9.08022 -77.13724 36688 ft 482 kts 81°
2026-04-28 12:55 9.08642 -77.10393 36910 ft 482 kts 81°
2026-04-28 12:56 9.09882 -77.03741 36928 ft 478 kts 81°
2026-04-28 12:56 9.11112 -76.97130 36925 ft 478 kts 81°
2026-04-28 12:57 9.12343 -76.90506 36926 ft 478 kts 81°
2026-04-28 12:57 9.13565 -76.83924 36923 ft 478 kts 81°
2026-04-28 12:58 9.14793 -76.77307 36922 ft 478 kts 81°
2026-04-28 12:58 9.16019 -76.70687 36920 ft 478 kts 81°
2026-04-28 12:59 9.17247 -76.64058 36921 ft 479 kts 81°
2026-04-28 12:59 9.18463 -76.57478 36921 ft 478 kts 81°
2026-04-28 13:00 9.19686 -76.50857 36927 ft 479 kts 81°
2026-04-28 13:00 9.20909 -76.44229 36926 ft 479 kts 81°
2026-04-28 13:01 9.22129 -76.37608 36923 ft 479 kts 81°
2026-04-28 13:01 9.23351 -76.30973 36922 ft 479 kts 81°
2026-04-28 13:02 9.24562 -76.24391 36927 ft 479 kts 81°
2026-04-28 13:02 9.24973 -76.22155 36924 ft 479 kts 81°
2026-04-28 13:03 9.27078 -76.10688 36929 ft 478 kts 81°
2026-04-28 13:03 9.28294 -76.04054 36927 ft 478 kts 81°
2026-04-28 13:04 9.29508 -75.97425 36928 ft 478 kts 81°
2026-04-28 13:04 9.30720 -75.90802 36924 ft 476 kts 81°
2026-04-28 13:05 9.31918 -75.84246 36934 ft 477 kts 81°
2026-04-28 13:05 9.33128 -75.77614 36928 ft 479 kts 81°
2026-04-28 13:06 9.34338 -75.70983 36923 ft 479 kts 81°
2026-04-28 13:06 9.35547 -75.64345 36926 ft 480 kts 81°
2026-04-28 13:07 9.36748 -75.57741 36929 ft 480 kts 81°
2026-04-28 13:07 9.37960 -75.51075 36929 ft 481 kts 81°
2026-04-28 13:08 9.39170 -75.44412 36935 ft 481 kts 81°
2026-04-28 13:08 9.40372 -75.37781 36937 ft 481 kts 80°
2026-04-28 13:09 9.41583 -75.31099 36940 ft 481 kts 80°
2026-04-28 13:09 9.42790 -75.24425 36941 ft 481 kts 80°
2026-04-28 13:10 9.43997 -75.17747 36937 ft 482 kts 80°
2026-04-28 13:10 9.45204 -75.11066 36934 ft 482 kts 80°
2026-04-28 13:11 9.46402 -75.04423 36931 ft 482 kts 80°
2026-04-28 13:11 9.47606 -74.97741 36924 ft 482 kts 80°
2026-04-28 13:12 9.48808 -74.91062 36921 ft 482 kts 80°
2026-04-28 13:12 9.49993 -74.84378 36919 ft 482 kts 81°
2026-04-28 13:13 9.51119 -74.77685 36917 ft 482 kts 81°
2026-04-28 13:13 9.52253 -74.70981 36913 ft 482 kts 81°
2026-04-28 13:14 9.53384 -74.64289 36915 ft 482 kts 81°
2026-04-28 13:14 9.54513 -74.57601 36914 ft 481 kts 81°
2026-04-28 13:15 9.55640 -74.50920 36914 ft 481 kts 81°
2026-04-28 13:15 9.56764 -74.44241 36914 ft 481 kts 81°
2026-04-28 13:16 9.57880 -74.37610 36914 ft 480 kts 81°
2026-04-28 13:16 9.59000 -74.30943 36916 ft 480 kts 81°
2026-04-28 13:17 9.60119 -74.24273 36917 ft 480 kts 81°
2026-04-28 13:17 9.61236 -74.17611 36917 ft 479 kts 81°
2026-04-28 13:18 9.62348 -74.10962 36926 ft 478 kts 81°
2026-04-28 13:18 9.63459 -74.04318 36911 ft 477 kts 81°
2026-04-28 13:19 9.64567 -73.97683 36917 ft 477 kts 81°
2026-04-28 13:19 9.65665 -73.91100 36917 ft 476 kts 81°
2026-04-28 13:20 9.66767 -73.84487 36910 ft 476 kts 81°
2026-04-28 13:20 9.67868 -73.77873 36915 ft 475 kts 81°
2026-04-28 13:21 9.68968 -73.71261 36917 ft 476 kts 81°
2026-04-28 13:21 9.69890 -73.65765 36913 ft 475 kts 81°
2026-04-28 13:22 9.70999 -73.59152 36916 ft 475 kts 81°
2026-04-28 13:22 9.72098 -73.52589 36916 ft 475 kts 81°
2026-04-28 13:23 9.73201 -73.45992 36932 ft 474 kts 81°
2026-04-28 13:23 9.74302 -73.39401 36943 ft 474 kts 81°
2026-04-28 13:24 9.75402 -73.32803 36958 ft 474 kts 81°
2026-04-28 13:24 9.76502 -73.26203 36967 ft 475 kts 81°
2026-04-28 13:25 9.77600 -73.19607 36982 ft 475 kts 81°
2026-04-28 13:25 9.78696 -73.13012 36990 ft 474 kts 81°
2026-04-28 13:26 9.79792 -73.06410 36994 ft 475 kts 81°
2026-04-28 13:26 9.80887 -72.99804 36998 ft 475 kts 81°
2026-04-28 13:27 9.81946 -72.93249 37000 ft 474 kts 82°
2026-04-28 13:27 9.83008 -72.86642 37013 ft 474 kts 82°
2026-04-28 13:28 9.84069 -72.80036 37006 ft 474 kts 82°
2026-04-28 13:28 9.85127 -72.73440 36997 ft 474 kts 82°
2026-04-28 13:29 9.86184 -72.66846 36992 ft 474 kts 82°
2026-04-28 13:29 9.87238 -72.60258 36980 ft 473 kts 82°
2026-04-28 13:30 9.88292 -72.53664 36974 ft 473 kts 82°
2026-04-28 13:30 9.89343 -72.47075 36966 ft 473 kts 82°
2026-04-28 13:31 9.90912 -72.37228 36959 ft 473 kts 82°
2026-04-28 13:31 9.91960 -72.30645 36959 ft 473 kts 82°
2026-04-28 13:32 9.93003 -72.24076 36957 ft 472 kts 82°
2026-04-28 13:32 9.94047 -72.17498 36956 ft 472 kts 82°
2026-04-28 13:33 9.95085 -72.10949 36956 ft 471 kts 82°
2026-04-28 13:33 9.96123 -72.04385 36956 ft 471 kts 82°
2026-04-28 13:34 9.97152 -71.97874 36959 ft 470 kts 82°
2026-04-28 13:34 9.98187 -71.91319 36965 ft 470 kts 82°
2026-04-28 13:35 9.99221 -71.84765 36979 ft 470 kts 82°
2026-04-28 13:35 10.00254 -71.78209 36986 ft 470 kts 82°
2026-04-28 13:36 10.01279 -71.71693 36994 ft 470 kts 82°
2026-04-28 13:36 10.02307 -71.65124 37010 ft 471 kts 82°
2026-04-28 13:37 10.03335 -71.58550 37026 ft 471 kts 82°
2026-04-28 13:37 10.04361 -71.51977 37040 ft 471 kts 82°
2026-04-28 13:38 10.05386 -71.45408 37050 ft 471 kts 82°
2026-04-28 13:38 10.06401 -71.38885 37065 ft 471 kts 82°
2026-04-28 13:39 10.07280 -71.32304 37081 ft 471 kts 83°
2026-04-28 13:39 10.08153 -71.25703 37092 ft 471 kts 83°
2026-04-28 13:40 10.09025 -71.19120 37094 ft 471 kts 83°
2026-04-28 13:40 10.09898 -71.12520 37100 ft 471 kts 83°
2026-04-28 13:41 10.10763 -71.05969 37098 ft 471 kts 83°
2026-04-28 13:41 10.11633 -70.99366 37100 ft 471 kts 83°
2026-04-28 13:42 10.12497 -70.92803 37106 ft 472 kts 83°
2026-04-28 13:42 10.13362 -70.86196 37108 ft 472 kts 83°
2026-04-28 13:43 10.14222 -70.79587 37093 ft 472 kts 83°
2026-04-28 13:43 10.15077 -70.73016 37094 ft 472 kts 83°
2026-04-28 13:44 10.15935 -70.66407 37096 ft 472 kts 83°
2026-04-28 13:44 10.16792 -70.59792 37090 ft 472 kts 83°
2026-04-28 13:45 10.17649 -70.53178 37083 ft 473 kts 83°
2026-04-28 13:45 10.18503 -70.46565 37077 ft 473 kts 83°
2026-04-28 13:46 10.19358 -70.39940 37067 ft 473 kts 83°
2026-04-28 13:46 10.20211 -70.33311 37060 ft 473 kts 83°
2026-04-28 13:47 10.21063 -70.26690 37050 ft 473 kts 83°
2026-04-28 13:47 10.21914 -70.20062 37041 ft 473 kts 83°
2026-04-28 13:48 10.22764 -70.13425 37028 ft 474 kts 84°
2026-04-28 13:48 10.23612 -70.06796 37020 ft 474 kts 84°
2026-04-28 13:49 10.24454 -70.00205 37019 ft 474 kts 83°
2026-04-28 13:49 10.25301 -69.93561 37017 ft 474 kts 84°
2026-04-28 13:50 10.26147 -69.86910 37015 ft 474 kts 83°
2026-04-28 13:50 10.26991 -69.80267 37013 ft 474 kts 83°
2026-04-28 13:51 10.27830 -69.73656 37008 ft 474 kts 83°
2026-04-28 13:51 10.28672 -69.67006 37022 ft 475 kts 83°
2026-04-28 13:52 10.29516 -69.60333 37017 ft 475 kts 83°
2026-04-28 13:52 10.29955 -69.56863 37028 ft 475 kts 83°
2026-04-28 13:53 10.30795 -69.50202 37023 ft 475 kts 84°
2026-04-28 13:53 10.31633 -69.43538 37037 ft 476 kts 83°
2026-04-28 13:54 10.32465 -69.36919 37035 ft 476 kts 84°
2026-04-28 13:54 10.33303 -69.30240 37036 ft 476 kts 83°
2026-04-28 13:55 10.34141 -69.23559 37035 ft 476 kts 83°
2026-04-28 13:55 10.34972 -69.16907 36853 ft 475 kts 83°
2026-04-28 13:56 10.35388 -69.13573 36007 ft 479 kts 84°
2026-04-28 13:56 10.35811 -69.10187 35150 ft 485 kts 84°
2026-04-28 13:56 10.36234 -69.06798 34626 ft 481 kts 84°
2026-04-28 13:56 10.36652 -69.03448 34214 ft 475 kts 84°
2026-04-28 13:57 10.37064 -69.00134 33685 ft 472 kts 84°
2026-04-28 13:57 10.37474 -68.96841 33098 ft 469 kts 84°
2026-04-28 13:57 10.37881 -68.93560 32565 ft 465 kts 84°
2026-04-28 13:57 10.38285 -68.90310 32066 ft 461 kts 84°
2026-04-28 13:58 10.38685 -68.87082 31568 ft 458 kts 84°
2026-04-28 13:58 10.39081 -68.83892 31049 ft 451 kts 84°
2026-04-28 13:58 10.39463 -68.80802 30549 ft 441 kts 84°
2026-04-28 13:58 10.39842 -68.77746 30092 ft 431 kts 84°
2026-04-28 13:59 10.40213 -68.74750 29554 ft 423 kts 84°
2026-04-28 13:59 10.40575 -68.71818 29057 ft 413 kts 85°
2026-04-28 13:59 10.40929 -68.68951 28622 ft 404 kts 85°
2026-04-28 13:59 10.41274 -68.66155 28200 ft 395 kts 85°
2026-04-28 14:00 10.41612 -68.63415 27781 ft 387 kts 85°
2026-04-28 14:00 10.41942 -68.60733 27368 ft 380 kts 85°
2026-04-28 14:00 10.42271 -68.58064 26865 ft 381 kts 85°
2026-04-28 14:00 10.42600 -68.55389 26430 ft 381 kts 85°
2026-04-28 14:01 10.42928 -68.52719 26043 ft 379 kts 84°
2026-04-28 14:01 10.43255 -68.50062 25655 ft 378 kts 84°
2026-04-28 14:01 10.43580 -68.47418 25258 ft 377 kts 84°
2026-04-28 14:01 10.43904 -68.44781 24872 ft 376 kts 84°
2026-04-28 14:02 10.44223 -68.42175 24492 ft 375 kts 85°
2026-04-28 14:02 10.44545 -68.39544 24104 ft 375 kts 84°
2026-04-28 14:02 10.44868 -68.36912 23703 ft 375 kts 84°
2026-04-28 14:02 10.45189 -68.34284 23261 ft 374 kts 84°
2026-04-28 14:03 10.45507 -68.31682 22834 ft 368 kts 84°
2026-04-28 14:03 10.45819 -68.29133 22460 ft 360 kts 84°
2026-04-28 14:03 10.46124 -68.26634 22081 ft 353 kts 84°
2026-04-28 14:03 10.46422 -68.24186 21714 ft 346 kts 84°
2026-04-28 14:04 10.46715 -68.21777 22220 ft 341 kts 83°
2026-04-28 14:04 10.47009 -68.19372 21532 ft 345 kts 83°
2026-04-28 14:04 10.47306 -68.16933 20839 ft 350 kts 83°
2026-04-28 14:04 10.47607 -68.14463 20245 ft 351 kts 83°
2026-04-28 14:05 10.47905 -68.12021 19840 ft 346 kts 83°
2026-04-28 14:05 10.48197 -68.09617 19473 ft 339 kts 83°
2026-04-28 14:05 10.48544 -68.07269 19072 ft 334 kts 76°
2026-04-28 14:05 10.49124 -68.05004 18728 ft 328 kts 76°
2026-04-28 14:06 10.49673 -68.02782 18408 ft 321 kts 76°
2026-04-28 14:06 10.50199 -68.00603 18087 ft 314 kts 76°
2026-04-28 14:06 10.50707 -67.98468 17784 ft 307 kts 77°
2026-04-28 14:06 10.51204 -67.96361 17455 ft 309 kts 77°
2026-04-28 14:07 10.51707 -67.94217 17119 ft 314 kts 77°
2026-04-28 14:07 10.52217 -67.92046 16792 ft 317 kts 77°
2026-04-28 14:07 10.52726 -67.89870 16474 ft 316 kts 77°
2026-04-28 14:07 10.53233 -67.87704 16146 ft 315 kts 77°
2026-04-28 14:08 10.53731 -67.85575 15819 ft 313 kts 77°
2026-04-28 14:08 10.54233 -67.83430 15503 ft 311 kts 77°
2026-04-28 14:08 10.54732 -67.81293 15180 ft 310 kts 77°
2026-04-28 14:08 10.55067 -67.79858 14964 ft 309 kts 77°
2026-04-28 14:09 10.55723 -67.77049 14543 ft 308 kts 77°
2026-04-28 14:09 10.56218 -67.74931 14222 ft 308 kts 77°
2026-04-28 14:09 10.56713 -67.72813 13901 ft 308 kts 77°
2026-04-28 14:09 10.57206 -67.70700 13582 ft 307 kts 77°
2026-04-28 14:10 10.57697 -67.68596 13259 ft 305 kts 77°
2026-04-28 14:10 10.58158 -67.66497 12890 ft 304 kts 82°
2026-04-28 14:10 10.58275 -67.64333 12344 ft 309 kts 89°
2026-04-28 14:10 10.58313 -67.62879 12014 ft 312 kts 89°
2026-04-28 14:11 10.58380 -67.60661 11513 ft 314 kts 88°
2026-04-28 14:11 10.58451 -67.58461 10986 ft 308 kts 88°
2026-04-28 14:11 10.58524 -67.56301 10490 ft 303 kts 88°
2026-04-28 14:11 10.58596 -67.54179 9994 ft 298 kts 88°
2026-04-28 14:12 10.58668 -67.52094 9200 ft 292 kts 89°
2026-04-28 14:12 10.58737 -67.50095 8880 ft 280 kts 89°
2026-04-28 14:12 10.58803 -67.48157 8550 ft 270 kts 89°
2026-04-28 14:12 10.58867 -67.46273 8169 ft 263 kts 90°
2026-04-28 14:13 10.58931 -67.44411 7765 ft 263 kts 89°
2026-04-28 14:13 10.58994 -67.42556 7345 ft 262 kts 90°
2026-04-28 14:13 10.59058 -67.40703 6919 ft 262 kts 90°
2026-04-28 14:13 10.59121 -67.38856 6510 ft 261 kts 90°
2026-04-28 14:14 10.59184 -67.37015 6061 ft 260 kts 90°
2026-04-28 14:14 10.59245 -67.35188 5622 ft 257 kts 90°
2026-04-28 14:14 10.59306 -67.33391 5203 ft 253 kts 90°
2026-04-28 14:14 10.59367 -67.31591 4788 ft 255 kts 89°
2026-04-28 14:15 10.59428 -67.29787 4358 ft 255 kts 89°
2026-04-28 14:15 10.59491 -67.28048 4208 ft 240 kts 89°
2026-04-28 14:15 10.59550 -67.26404 4206 ft 224 kts 89°
2026-04-28 14:15 10.59610 -67.24833 4260 ft 221 kts 89°
2026-04-28 14:16 10.59666 -67.23292 4223 ft 221 kts 89°
2026-04-28 14:16 10.59715 -67.21714 3967 ft 220 kts 89°
2026-04-28 14:16 10.59764 -67.20167 3690 ft 219 kts 89°
2026-04-28 14:16 10.59813 -67.18648 3448 ft 216 kts 89°
2026-04-28 14:17 10.59863 -67.17124 3189 ft 214 kts 89°
2026-04-28 14:17 10.59912 -67.15628 2910 ft 210 kts 89°
2026-04-28 14:17 10.59959 -67.14161 2634 ft 204 kts 89°
2026-04-28 14:17 10.60004 -67.12781 2402 ft 184 kts 89°
2026-04-28 14:18 10.60043 -67.11568 2198 ft 160 kts 89°
2026-04-28 14:18 10.60077 -67.10494 1985 ft 146 kts 89°
2026-04-28 14:18 10.60111 -67.09460 1787 ft 146 kts 89°
2026-04-28 14:18 10.60145 -67.08429 1594 ft 146 kts 89°
2026-04-28 14:19 10.60177 -67.07405 1395 ft 144 kts 89°
2026-04-28 14:19 10.60210 -67.06397 1203 ft 142 kts 88°
2026-04-28 14:19 10.60241 -67.05407 1031 ft 140 kts 88°
2026-04-28 14:19 10.60295 -67.04404 872 ft 143 kts 89°
2026-04-28 14:20 10.60336 -67.03399 665 ft 142 kts 91°
2026-04-28 14:20 10.60353 -67.02406 493 ft 141 kts 91°
2026-04-28 14:20 10.60378 -67.01404 319 ft 141 kts 91°
2026-04-28 14:20 10.60405 -67.00462 233 ft 123 kts 92°
2026-04-28 14:21 10.60427 -66.99725 220 ft 82 kts 88°
2026-04-28 14:21 10.60442 -66.99297 202 ft 37 kts 89°
2026-04-28 14:21 10.60429 -66.99136 203 ft 17 kts 132°
2026-04-28 14:21 10.60300 -66.99116 194 ft 20 kts 178°
2026-04-28 14:22 10.60169 -66.99105 190 ft 18 kts 167°
2026-04-28 14:22 10.60069 -66.99081 198 ft 12 kts 166°
2026-04-28 14:22 10.60030 -66.99125 201 ft 9 kts 256°
2026-04-28 14:22 10.60016 -66.99178 204 ft 7 kts 255°
2026-04-28 14:23 10.60001 -66.99241 200 ft 13 kts 256°
2026-04-28 14:23 10.59971 -66.99360 206 ft 22 kts 256°
2026-04-28 14:23 10.59932 -66.99518 217 ft 22 kts 256°
2026-04-28 14:23 10.59945 -66.99648 220 ft 18 kts 327°
2026-04-28 14:24 10.60075 -66.99665 224 ft 19 kts 357°
2026-04-28 14:24 10.60137 -66.99756 222 ft 18 kts 270°
2026-04-28 14:24 10.60135 -66.99858 222 ft 11 kts 268°
2026-04-28 14:24 10.60126 -66.99932 221 ft 11 kts 262°
2026-04-28 14:25 10.60122 -67.00012 222 ft 12 kts 269°
2026-04-28 14:25 10.60118 -67.00100 224 ft 13 kts 267°
2026-04-28 14:25 10.60112 -67.00196 225 ft 14 kts 267°
2026-04-28 14:25 10.60096 -67.00282 227 ft 11 kts 221°
2026-04-28 14:26 10.60020 -67.00308 229 ft 12 kts 225°
2026-04-28 14:26 10.60002 -67.00395 229 ft 13 kts 268°
2026-04-28 14:26 10.59998 -67.00489 230 ft 12 kts 267°
2026-04-28 14:26 10.59995 -67.00559 232 ft 8 kts 268°
2026-04-28 14:27 10.59994 -67.00605 232 ft 5 kts 269°
2026-04-28 14:27 10.59994 -67.00630 233 ft 4 kts 269°
2026-04-28 14:27 10.59961 -67.00678 234 ft 14 kts 188°
2026-04-28 14:27 10.59894 -67.00676 234 ft 5 kts 179°
2026-04-28 14:28 10.59859 -67.00675 237 ft 4 kts 178°
2026-04-28 14:28 10.59836 -67.00675 234 ft 2 kts 178°
2026-04-28 14:28 10.59826 -67.00675 235 ft 0 kts 178°